Location: Henham
(51.9333°N, 0.2500°E)
Time: 16:44:29
(UTC+00:00)

STARLINK-66 - Pass Details

Date: 23 October 2019
Orbit: 548 x 551 km, 53.0° (Epoch: 12 November)

Event Time Altitude Azimuth Distance (km) Brightness Sun altitude
Rises 18:33:27 0° 282° (WNW) 2,720 8.9 -16.7°
Reaches altitude 10° 18:35:41 10° 283° (WNW) 1,825 7.5 -17.1°
Maximum altitude 18:39:51 88° 16° (NNE) 556 3.5 -17.7°
Enters shadow 18:41:12 42° 101° (E) 796 3.9 -17.9°
